Simultaneous Nadir Overpasses (SNOs) Predictions

Prediction of SNOs between LANDSAT-8 and NOAA-19 Satellite Orbit:

Table of predicted SNOs for the next 14.0 days since TLE Epoch: 12/2/2023
Index Date (LANDSAT-8) Time (LANDSAT-8) Lat,Lon (LANDSAT-8) SZA (LANDSAT-8 ) Date (NOAA-19) Time (NOAA-19) Lat,Lon (NOAA-19) SZA (NOAA-19 ) Distance(km) Time Diff (sec)
1 12/02/2023 01:51:51 -80.89, 8.61 75.31 12/02/2023 01:51:16 -80.89, 8.51 75.33 1.85 35
2 12/02/2023 02:41:17 80.89, 176.33 104.71 12/02/2023 02:42:17 80.90, 176.37 104.75 1.49 60
3 12/04/2023 08:14:59 -80.88, -87.20 75.01 12/04/2023 08:14:30 -80.89, -87.19 75.01 0.90 29
4 12/04/2023 09:04:24 80.92, 80.84 105.06 12/04/2023 09:05:30 80.91, 80.85 105.08 0.81 66
5 12/06/2023 14:38:06 -80.89, 177.09 74.73 12/06/2023 14:37:44 -80.89, 177.00 74.75 1.71 22
6 12/06/2023 15:27:32 80.89, -15.23 105.28 12/06/2023 15:28:44 80.90, -15.17 105.32 1.60 72
7 12/08/2023 21:01:12 -80.90, 81.49 74.48 12/08/2023 21:00:57 -80.90, 81.45 74.50 1.24 15
8 12/11/2023 03:24:17 -80.90, -14.35 74.30 12/11/2023 03:24:09 -80.90, -14.21 74.30 2.47 8
9 12/13/2023 09:47:22 -80.90,-110.08 74.15 12/13/2023 09:47:22 -80.90,-109.97 74.14 2.00 0



Historial Predications of SNOs between LANDSAT-8 and NOAA-19
